Home   Weather   Southampton   Past weeks

Flag for United Kingdom Past Weather in Southampton, England, United Kingdom — Yesterday and Last 2 Weeks

Now
54 °F

Scattered clouds.


Feels Like: 50 °F
Forecast: 36 / 52 °F
Wind: 13 mph from Northwest

Location: Southampton / Weather Centre

Current Time: Apr 24, 2017 at 6:34:38 pm

Latest Report: Apr 24, 2017 at 5:50 pm


Visibility: N/A

Pressure: 29.92 "Hg

Humidity: 58%

Dew Point: 39 °F

Location of SouthamptonLocation

Past Weather in Southampton — Graph

°F

Southampton Temperature Yesterday

Maximum temperature yesterday: 57 °F (at 1:20 pm)
Minimum temperature yesterday: 36 °F (at 6:50 am)
Average temperature yesterday: 51 °F

High & Low Weather Summary for the Past Weeks

 TemperatureHumidityPressure
High63 °F (Apr 9, 5:20 pm)100% (Apr 13, 6:50 am)30.63 "Hg (Apr 13, 6:50 am)
Low34 °F (Apr 18, 5:50 am)38% (Apr 18, 6:20 pm)29.92 "Hg (Apr 24, 3:50 pm)
Average50 °F65%30.28 "Hg
* Reported Apr 9 5:20 pm — Apr 24 5:20 pm, Southampton, Weather by CustomWeather, © 2017

Note: Actual official high and low records may vary slightly from our data, if they occured in-between our weather recording intervals... More about our weather records

Advertising

Southampton Weather History for the Previous 24 Hours

Scroll right to see more
 ConditionsComfort  
Time TempWeatherWind HumidityBarometerVisibility
5:20 pm
Mon, Apr 24
55 °FScattered clouds.14 mph51%29.92 "HgN/A
4:50 pm55 °FScattered clouds.10 mph51%29.92 "HgN/A
4:20 pm55 °FScattered clouds.12 mph55%29.92 "HgN/A
3:50 pm55 °FScattered clouds.9 mph55%29.92 "HgN/A
3:20 pm55 °FScattered clouds.10 mph55%29.95 "HgN/A
2:50 pm55 °FScattered clouds.12 mph59%29.95 "HgN/A
2:20 pm55 °FScattered clouds.12 mph55%29.98 "HgN/A
1:50 pm55 °FPassing clouds.8 mph63%29.98 "HgN/A
1:20 pm55 °FPassing clouds.6 mph59%30.01 "HgN/A
12:50 pm54 °FPassing clouds.8 mph63%30.01 "HgN/A
12:20 pm55 °FPassing clouds.9 mph59%30.01 "HgN/A
11:50 am55 °FPassing clouds.8 mph59%30.04 "HgN/A
11:20 am54 °FPassing clouds.8 mph63%30.04 "HgN/A
10:50 am54 °FPassing clouds.5 mph67%30.04 "HgN/A
10:20 am52 °FPassing clouds.3 mph67%30.07 "HgN/A
9:50 am52 °FPassing clouds.6 mph67%30.07 "HgN/A
9:20 am52 °FPassing clouds.3 mph62%30.07 "HgN/A
8:50 am48 °FPassing clouds.2 mph76%30.07 "HgN/A
8:20 am46 °FPassing clouds.2 mph82%30.07 "HgN/A
7:50 am46 °FPassing clouds.3 mph82%30.09 "HgN/A
7:20 am43 °FPassing clouds.No wind93%30.09 "HgN/A
6:50 am41 °FPassing clouds.No wind93%30.09 "HgN/A
6:20 am37 °FFog.No wind100%30.09 "HgN/A
5:50 am39 °FFog.No wind93%30.09 "HgN/A
10:50 pm
Sun, Apr 23
45 °FPassing clouds.No wind81%30.21 "HgN/A
9:50 pm48 °FPassing clouds.No wind76%30.21 "HgN/A
9:20 pm48 °FPassing clouds.3 mph76%30.21 "HgN/A
8:50 pm50 °FPassing clouds.2 mph71%30.21 "HgN/A
7:50 pm52 °FPassing clouds.5 mph62%30.21 "HgN/A
7:20 pm54 °FPassing clouds.6 mph58%30.21 "HgN/A
6:50 pm55 °FPassing clouds.6 mph51%30.21 "HgN/A
6:20 pm55 °FPassing clouds.7 mph55%30.21 "HgN/A
Weather by CustomWeather, © 2017

See weather overviewHow to use our weather pages